Tracking 25995 objects as of 18-Aug-2022
HD Live streaming from Space Station
objects crossing your sky now

PRC TEST SPACECRAFT2

Track PRC TEST SPACECRAFT2 now!
10-day predictions


NORAD ID: 53357
Int'l Code: 2022-093A
Perigee: 352.7 km
Apogee: 600.3 km
Inclination: 50.0 °
Period: 94.0 minutes
Semi major axis: 6847 km
RCS: Unknown
Launch date: August 4, 2022
Source: People's Republic of China (PRC)
Launch site: Jiuquan Satellite Launch Center, China (JSC)
aabbcc
Your satellite tracking list
Your tracking list is empty




NASA's NSSDC Master Catalog

Two Line Element Set (TLE):
1 53357U 22093A   22230.88838366  .00023113  00000-0  44048-3 0  9991
2 53357  49.9946  93.2834 0180777 207.1294 275.4488 15.32173859  2183
Source of the keplerian elements: AFSPC